Time,TemperatureF,DewpointF,PressureIn,WindDirection,WindDirectionDegrees,WindSpeedMPH,WindSpeedGustMPH,Humidity,HourlyPrecipIn,Conditions,Clouds,dailyrainin,SoftwareType,DateUTC
2013-02-04 00:01:00,52.3,48.2,30.10,North,355,0.0,0.0,86,0.00,,---,0.00,VWS V14.00,2013-02-04 05:01:00,
2013-02-04 00:02:00,52.2,48.5,30.10,North,355,0.0,0.0,87,0.00,,---,0.00,VWS V14.00,2013-02-04 05:02:00,
2013-02-04 00:07:00,51.9,48.5,30.09,North,355,0.0,0.0,88,0.00,,---,0.00,VWS V14.00,2013-02-04 05:07:00,
2013-02-04 00:12:00,51.8,48.7,30.09,North,355,0.0,0.0,89,0.00,,---,0.00,VWS V14.00,2013-02-04 05:12:00,
2013-02-04 00:17:00,51.7,48.6,30.09,North,355,0.0,0.0,89,0.00,,---,0.00,VWS V14.00,2013-02-04 05:17:00,
2013-02-04 00:22:00,51.6,48.8,30.09,North,355,0.0,0.0,90,0.00,,---,0.00,VWS V14.00,2013-02-04 05:22:00,
2013-02-04 00:27:00,51.5,48.7,30.09,North,355,0.0,0.0,90,0.00,,---,0.00,VWS V14.00,2013-02-04 05:27:00,
2013-02-04 00:32:00,51.3,48.5,30.09,North,355,0.0,0.0,90,0.00,,---,0.00,VWS V14.00,2013-02-04 05:32:00,
2013-02-04 00:37:00,51.1,48.3,30.09,North,355,0.0,0.0,90,0.00,,---,0.00,VWS V14.00,2013-02-04 05:37:00,
2013-02-04 00:42:00,50.9,48.1,30.09,North,355,0.0,0.0,90,0.00,,---,0.00,VWS V14.00,2013-02-04 05:42:00,
2013-02-04 00:47:00,50.6,47.8,30.09,North,355,0.0,0.0,90,0.00,,---,0.00,VWS V14.00,2013-02-04 05:47:00,
2013-02-04 00:52:00,50.4,47.9,30.09,North,355,0.0,0.0,91,0.00,,---,0.00,VWS V14.00,2013-02-04 05:52:00,
2013-02-04 00:57:00,50.1,47.6,30.09,North,355,0.0,0.0,91,0.00,,---,0.00,VWS V14.00,2013-02-04 05:57:00,
2013-02-04 01:02:00,49.8,47.3,30.09,North,355,0.0,0.0,91,0.00,,---,0.00,VWS V14.00,2013-02-04 06:02:00,
2013-02-04 01:07:00,49.6,47.1,30.09,North,355,0.0,0.0,91,0.00,,---,0.00,VWS V14.00,2013-02-04 06:07:00,
2013-02-04 01:12:00,49.5,47.6,30.09,North,355,0.0,0.0,93,0.00,,---,0.00,VWS V14.00,2013-02-04 06:12:00,
2013-02-04 01:17:00,49.5,47.6,30.09,North,355,0.0,0.0,93,0.00,,---,0.00,VWS V14.00,2013-02-04 06:17:00,
2013-02-04 01:22:00,49.4,47.5,30.09,North,355,0.0,0.0,93,0.00,,---,0.00,VWS V14.00,2013-02-04 06:22:00,
2013-02-04 01:27:00,49.2,47.0,30.09,North,355,0.0,0.0,92,0.00,,---,0.00,VWS V14.00,2013-02-04 06:27:00,
2013-02-04 01:32:00,49.1,46.9,30.09,North,355,0.0,0.0,92,0.00,,---,0.00,VWS V14.00,2013-02-04 06:32:00,
2013-02-04 01:37:00,48.9,47.0,30.09,North,355,0.0,0.0,93,0.00,,---,0.00,VWS V14.00,2013-02-04 06:37:00,
2013-02-04 01:42:00,48.9,47.0,30.09,North,355,0.0,0.0,93,0.00,,---,0.00,VWS V14.00,2013-02-04 06:42:00,
2013-02-04 01:47:00,48.8,46.9,30.09,North,355,0.0,0.0,93,0.00,,---,0.00,VWS V14.00,2013-02-04 06:47:00,
2013-02-04 01:52:00,48.6,46.7,30.08,North,355,0.0,0.0,93,0.00,,---,0.00,VWS V14.00,2013-02-04 06:52:00,
2013-02-04 01:57:00,48.6,47.0,30.09,North,355,0.0,0.0,94,0.00,,---,0.00,VWS V14.00,2013-02-04 06:57:00,
2013-02-04 02:02:00,48.7,47.0,30.08,North,355,0.0,0.0,94,0.00,,---,0.00,VWS V14.00,2013-02-04 07:02:00,
2013-02-04 02:07:00,48.4,46.5,30.08,North,355,0.0,0.0,93,0.00,,---,0.00,VWS V14.00,2013-02-04 07:07:00,
2013-02-04 02:12:00,48.2,46.3,30.09,North,355,0.0,0.0,93,0.00,,---,0.00,VWS V14.00,2013-02-04 07:12:00,
2013-02-04 02:17:00,48.1,46.2,30.09,North,355,0.0,0.0,93,0.00,,---,0.00,VWS V14.00,2013-02-04 07:17:00,
2013-02-04 02:22:00,48.0,46.4,30.09,North,355,0.0,0.0,94,0.00,,---,0.00,VWS V14.00,2013-02-04 07:22:00,
2013-02-04 02:27:00,47.9,46.0,30.09,North,355,0.0,0.0,93,0.00,,---,0.00,VWS V14.00,2013-02-04 07:27:00,
2013-02-04 02:32:00,47.8,46.2,30.09,North,355,0.0,0.0,94,0.00,,---,0.00,VWS V14.00,2013-02-04 07:32:00,
2013-02-04 02:37:00,47.6,45.7,30.09,North,355,0.0,0.0,93,0.00,,---,0.00,VWS V14.00,2013-02-04 07:37:00,
2013-02-04 02:42:00,47.4,45.5,30.09,North,355,0.0,0.0,93,0.00,,---,0.00,VWS V14.00,2013-02-04 07:42:00,
2013-02-04 02:47:00,47.2,45.3,30.09,North,355,0.0,0.0,93,0.00,,---,0.00,VWS V14.00,2013-02-04 07:47:00,
2013-02-04 02:52:00,46.9,45.0,30.09,North,355,0.0,0.0,93,0.00,,---,0.00,VWS V14.00,2013-02-04 07:52:00,
2013-02-04 02:57:00,46.7,45.1,30.09,North,355,0.0,0.0,94,0.00,,---,0.00,VWS V14.00,2013-02-04 07:57:00,
2013-02-04 03:02:00,46.7,45.1,30.09,North,355,0.0,0.0,94,0.00,,---,0.00,VWS V14.00,2013-02-04 08:02:00,
2013-02-04 03:07:00,46.9,45.5,30.09,North,355,0.0,0.0,95,0.00,,---,0.00,VWS V14.00,2013-02-04 08:07:00,
2013-02-04 03:12:00,47.7,46.6,30.09,North,355,0.0,0.0,96,0.00,,---,0.00,VWS V14.00,2013-02-04 08:12:00,
2013-02-04 03:17:00,48.2,47.1,30.09,North,355,0.0,0.0,96,0.00,,---,0.00,VWS V14.00,2013-02-04 08:17:00,
2013-02-04 03:22:00,48.3,47.2,30.09,North,355,0.0,0.0,96,0.00,,---,0.00,VWS V14.00,2013-02-04 08:22:00,
2013-02-04 03:27:00,48.4,47.3,30.09,North,355,1.0,2.0,96,0.00,,---,0.00,VWS V14.00,2013-02-04 08:27:00,
2013-02-04 03:32:00,48.4,47.3,30.09,North,355,0.0,0.0,96,0.00,,---,0.00,VWS V14.00,2013-02-04 08:32:00,
2013-02-04 03:37:00,48.3,47.2,30.09,North,355,0.0,0.0,96,0.00,,---,0.00,VWS V14.00,2013-02-04 08:37:00,
2013-02-04 03:42:00,48.0,46.9,30.08,North,355,0.0,4.0,96,0.00,,---,0.00,VWS V14.00,2013-02-04 08:42:00,
2013-02-04 03:47:00,47.8,46.7,30.08,North,355,0.0,0.0,96,0.00,,---,0.00,VWS V14.00,2013-02-04 08:47:00,
2013-02-04 03:52:00,47.6,46.5,30.08,North,355,0.0,0.0,96,0.00,,---,0.00,VWS V14.00,2013-02-04 08:52:00,
2013-02-04 03:57:00,47.5,46.4,30.08,North,355,0.0,1.0,96,0.00,,---,0.00,VWS V14.00,2013-02-04 08:57:00,
2013-02-04 04:02:00,47.4,46.3,30.08,North,355,0.0,0.0,96,0.00,,---,0.00,VWS V14.00,2013-02-04 09:02:00,
2013-02-04 04:07:00,47.4,46.3,30.08,North,355,0.0,0.0,96,0.00,,---,0.00,VWS V14.00,2013-02-04 09:07:00,
2013-02-04 04:12:00,47.3,46.2,30.08,North,355,4.0,4.0,96,0.00,,---,0.00,VWS V14.00,2013-02-04 09:12:00,
2013-02-04 04:17:00,47.1,46.0,30.08,North,355,0.0,4.0,96,0.00,,---,0.00,VWS V14.00,2013-02-04 09:17:00,
2013-02-04 04:22:00,46.8,45.7,30.08,North,355,0.0,0.0,96,0.00,,---,0.00,VWS V14.00,2013-02-04 09:22:00,
2013-02-04 04:27:00,46.5,45.4,30.09,North,355,0.0,0.0,96,0.00,,---,0.00,VWS V14.00,2013-02-04 09:27:00,
2013-02-04 04:32:00,46.3,45.0,30.08,North,355,0.0,0.0,95,0.00,,---,0.00,VWS V14.00,2013-02-04 09:32:00,
2013-02-04 04:37:00,46.0,44.9,30.08,North,355,0.0,0.0,96,0.00,,---,0.00,VWS V14.00,2013-02-04 09:37:00,
2013-02-04 04:42:00,45.8,44.7,30.08,North,355,0.0,0.0,96,0.00,,---,0.00,VWS V14.00,2013-02-04 09:42:00,
2013-02-04 04:47:00,45.7,44.6,30.09,North,355,0.0,0.0,96,0.00,,---,0.00,VWS V14.00,2013-02-04 09:47:00,
2013-02-04 04:52:00,45.7,44.6,30.09,North,355,0.0,0.0,96,0.00,,---,0.00,VWS V14.00,2013-02-04 09:52:00,
2013-02-04 04:57:00,45.6,44.5,30.09,North,355,0.0,0.0,96,0.00,,---,0.00,VWS V14.00,2013-02-04 09:57:00,
2013-02-04 05:02:00,45.5,44.4,30.09,North,355,0.0,0.0,96,0.00,,---,0.00,VWS V14.00,2013-02-04 10:02:00,
2013-02-04 05:07:00,45.3,44.2,30.09,North,355,0.0,0.0,96,0.00,,---,0.00,VWS V14.00,2013-02-04 10:07:00,
2013-02-04 05:12:00,45.1,44.0,30.09,North,355,0.0,0.0,96,0.00,,---,0.00,VWS V14.00,2013-02-04 10:12:00,
2013-02-04 05:17:00,44.9,43.8,30.09,North,355,0.0,0.0,96,0.00,,---,0.00,VWS V14.00,2013-02-04 10:17:00,
2013-02-04 05:22:00,44.8,43.7,30.09,North,355,0.0,0.0,96,0.00,,---,0.00,VWS V14.00,2013-02-04 10:22:00,
2013-02-04 05:27:00,44.4,43.1,30.09,North,355,0.0,0.0,95,0.00,,---,0.00,VWS V14.00,2013-02-04 10:27:00,
2013-02-04 05:32:00,44.2,43.1,30.09,North,355,0.0,0.0,96,0.00,,---,0.00,VWS V14.00,2013-02-04 10:32:00,
2013-02-04 05:37:00,44.0,42.9,30.10,North,355,0.0,0.0,96,0.00,,---,0.00,VWS V14.00,2013-02-04 10:37:00,
2013-02-04 05:42:00,43.8,42.7,30.09,North,355,0.0,0.0,96,0.00,,---,0.00,VWS V14.00,2013-02-04 10:42:00,
2013-02-04 05:47:00,43.5,42.2,30.09,North,355,0.0,0.0,95,0.00,,---,0.00,VWS V14.00,2013-02-04 10:47:00,
2013-02-04 05:52:00,43.4,42.1,30.10,North,355,0.0,0.0,95,0.00,,---,0.00,VWS V14.00,2013-02-04 10:52:00,
2013-02-04 05:57:00,43.2,42.1,30.09,North,355,0.0,0.0,96,0.00,,---,0.00,VWS V14.00,2013-02-04 10:57:00,
2013-02-04 06:02:00,43.0,41.9,30.10,North,355,0.0,0.0,96,0.00,,---,0.00,VWS V14.00,2013-02-04 11:02:00,
2013-02-04 06:07:00,42.8,41.5,30.10,North,355,0.0,0.0,95,0.00,,---,0.00,VWS V14.00,2013-02-04 11:07:00,
2013-02-04 06:12:00,42.7,41.6,30.10,North,355,0.0,0.0,96,0.00,,---,0.00,VWS V14.00,2013-02-04 11:12:00,
2013-02-04 06:17:00,42.5,41.4,30.10,North,355,0.0,0.0,96,0.00,,---,0.00,VWS V14.00,2013-02-04 11:17:00,
2013-02-04 06:22:00,42.3,41.2,30.10,North,355,0.0,0.0,96,0.00,,---,0.00,VWS V14.00,2013-02-04 11:22:00,
2013-02-04 06:27:00,42.1,40.8,30.10,North,355,0.0,0.0,95,0.00,,---,0.00,VWS V14.00,2013-02-04 11:27:00,
2013-02-04 06:32:00,41.9,40.6,30.10,North,355,0.0,0.0,95,0.00,,---,0.00,VWS V14.00,2013-02-04 11:32:00,
2013-02-04 06:37:00,41.6,40.3,30.10,North,355,0.0,0.0,95,0.00,,---,0.00,VWS V14.00,2013-02-04 11:37:00,
2013-02-04 06:42:00,41.4,40.1,30.10,North,355,0.0,0.0,95,0.00,,---,0.00,VWS V14.00,2013-02-04 11:42:00,
2013-02-04 06:47:00,41.2,39.9,30.10,North,355,0.0,0.0,95,0.00,,---,0.00,VWS V14.00,2013-02-04 11:47:00,
2013-02-04 06:52:00,41.1,39.8,30.10,North,355,0.0,0.0,95,0.00,,---,0.00,VWS V14.00,2013-02-04 11:52:00,
2013-02-04 06:57:00,40.9,39.6,30.11,North,355,0.0,0.0,95,0.00,,---,0.00,VWS V14.00,2013-02-04 11:57:00,
2013-02-04 07:02:00,40.8,39.8,30.11,North,355,0.0,0.0,96,0.00,,---,0.00,VWS V14.00,2013-02-04 12:02:00,
2013-02-04 07:07:00,40.7,39.7,30.11,North,355,0.0,0.0,96,0.00,,---,0.00,VWS V14.00,2013-02-04 12:07:00,
2013-02-04 07:12:00,40.9,39.8,30.11,North,355,0.0,0.0,96,0.00,,---,0.00,VWS V14.00,2013-02-04 12:12:00,
2013-02-04 07:17:00,41.2,40.4,30.11,North,355,0.0,0.0,97,0.00,,---,0.00,VWS V14.00,2013-02-04 12:17:00,
2013-02-04 07:22:00,41.2,40.4,30.11,North,355,0.0,0.0,97,0.00,,---,0.00,VWS V14.00,2013-02-04 12:22:00,
2013-02-04 07:27:00,41.1,40.0,30.11,North,355,0.0,0.0,96,0.00,,---,0.00,VWS V14.00,2013-02-04 12:27:00,
2013-02-04 07:32:00,41.0,40.0,30.11,North,355,0.0,0.0,96,0.00,,---,0.01,VWS V14.00,2013-02-04 12:32:00,
2013-02-04 07:37:00,40.8,39.8,30.12,North,355,0.0,0.0,96,0.00,,---,0.01,VWS V14.00,2013-02-04 12:37:00,
2013-02-04 07:42:00,40.7,39.7,30.12,North,355,0.0,0.0,96,0.00,,---,0.01,VWS V14.00,2013-02-04 12:42:00,
2013-02-04 07:47:00,40.8,39.8,30.12,North,355,0.0,0.0,96,0.00,,---,0.01,VWS V14.00,2013-02-04 12:47:00,
2013-02-04 07:52:00,41.0,40.0,30.12,North,355,0.0,0.0,96,0.00,,---,0.01,VWS V14.00,2013-02-04 12:52:00,
2013-02-04 07:57:00,41.4,40.6,30.12,North,355,0.0,0.0,97,0.00,,---,0.01,VWS V14.00,2013-02-04 12:57:00,
2013-02-04 08:02:00,41.6,40.8,30.12,North,355,0.0,0.0,97,0.00,,---,0.01,VWS V14.00,2013-02-04 13:02:00,
2013-02-04 08:07:00,42.1,41.3,30.12,North,355,0.0,0.0,97,0.00,,---,0.01,VWS V14.00,2013-02-04 13:07:00,
2013-02-04 08:12:00,42.6,41.8,30.12,North,355,0.0,0.0,97,0.00,,---,0.01,VWS V14.00,2013-02-04 13:12:00,
2013-02-04 08:17:00,43.3,42.5,30.12,North,355,0.0,0.0,97,0.00,,---,0.01,VWS V14.00,2013-02-04 13:17:00,
2013-02-04 08:22:00,44.1,43.3,30.13,North,355,0.0,0.0,97,0.00,,---,0.01,VWS V14.00,2013-02-04 13:22:00,
2013-02-04 08:27:00,45.2,44.7,30.12,North,355,0.0,0.0,98,0.00,,---,0.01,VWS V14.00,2013-02-04 13:27:00,
2013-02-04 08:32:00,46.3,45.5,30.12,North,355,0.0,0.0,97,0.00,,---,0.01,VWS V14.00,2013-02-04 13:32:00,
2013-02-04 08:37:00,47.2,46.7,30.13,North,355,0.0,0.0,98,0.00,,---,0.01,VWS V14.00,2013-02-04 13:37:00,
2013-02-04 08:42:00,48.2,47.7,30.13,North,355,0.0,0.0,98,0.00,,---,0.01,VWS V14.00,2013-02-04 13:42:00,
2013-02-04 08:47:00,49.5,49.0,30.13,North,355,0.0,0.0,98,0.00,,---,0.01,VWS V14.00,2013-02-04 13:47:00,
2013-02-04 08:52:00,50.6,50.1,30.13,North,355,0.0,0.0,98,0.00,,---,0.01,VWS V14.00,2013-02-04 13:52:00,
2013-02-04 08:57:00,51.1,50.6,30.13,North,355,0.0,2.0,98,0.00,,---,0.01,VWS V14.00,2013-02-04 13:57:00,
2013-02-04 09:02:00,51.8,51.0,30.13,North,355,0.0,1.0,97,0.00,,---,0.01,VWS V14.00,2013-02-04 14:02:00,
2013-02-04 09:07:00,52.9,49.5,30.13,North,355,0.0,0.0,88,0.00,,---,0.01,VWS V14.00,2013-02-04 14:07:00,
2013-02-04 09:12:00,53.8,49.7,30.14,North,355,0.0,0.0,86,0.00,,---,0.01,VWS V14.00,2013-02-04 14:12:00,
2013-02-04 09:17:00,54.5,49.5,30.14,North,355,0.0,0.0,83,0.00,,---,0.01,VWS V14.00,2013-02-04 14:17:00,
2013-02-04 09:22:00,55.3,49.6,30.14,North,355,0.0,0.0,81,0.00,,---,0.01,VWS V14.00,2013-02-04 14:22:00,
2013-02-04 09:27:00,55.8,48.7,30.14,North,355,1.0,5.0,77,0.00,,---,0.01,VWS V14.00,2013-02-04 14:27:00,
2013-02-04 09:32:00,56.2,49.8,30.14,North,355,0.0,1.0,79,0.00,,---,0.01,VWS V14.00,2013-02-04 14:32:00,
2013-02-04 09:37:00,57.1,50.3,30.14,North,355,0.0,1.0,78,0.00,,---,0.01,VWS V14.00,2013-02-04 14:37:00,
2013-02-04 09:42:00,58.0,49.4,30.14,North,355,0.0,0.0,73,0.00,,---,0.01,VWS V14.00,2013-02-04 14:42:00,
2013-02-04 09:47:00,58.0,48.3,30.14,North,355,1.0,5.0,70,0.00,,---,0.01,VWS V14.00,2013-02-04 14:47:00,
2013-02-04 09:52:00,58.6,48.5,30.14,North,5,2.0,5.0,69,0.00,,---,0.01,VWS V14.00,2013-02-04 14:52:00,
2013-02-04 09:57:00,59.1,47.8,30.14,NNE,13,2.0,6.0,66,0.00,,---,0.01,VWS V14.00,2013-02-04 14:57:00,
2013-02-04 10:02:00,59.4,47.2,30.13,NNE,17,1.0,4.0,64,0.00,,---,0.01,VWS V14.00,2013-02-04 15:02:00,
2013-02-04 10:07:00,60.2,47.6,30.13,ENE,65,4.0,5.0,63,0.00,,---,0.01,VWS V14.00,2013-02-04 15:07:00,
2013-02-04 10:12:00,61.2,46.8,30.13,ENE,63,0.0,0.0,59,0.00,,---,0.01,VWS V14.00,2013-02-04 15:12:00,
2013-02-04 10:17:00,61.9,45.1,30.13,NE,49,4.0,5.0,54,0.00,,---,0.01,VWS V14.00,2013-02-04 15:17:00,
2013-02-04 10:22:00,62.5,44.2,30.14,ENE,60,1.0,5.0,51,0.00,,---,0.01,VWS V14.00,2013-02-04 15:22:00,
2013-02-04 10:27:00,63.3,44.4,30.13,ENE,71,0.0,2.0,50,0.00,,---,0.01,VWS V14.00,2013-02-04 15:27:00,
2013-02-04 10:32:00,63.7,44.7,30.13,ENE,59,0.0,6.0,50,0.00,,---,0.01,VWS V14.00,2013-02-04 15:32:00,
2013-02-04 10:37:00,64.5,42.1,30.13,ESE,103,5.0,6.0,44,0.00,,---,0.01,VWS V14.00,2013-02-04 15:37:00,
2013-02-04 10:42:00,64.9,41.9,30.13,NNE,32,4.0,7.0,43,0.00,,---,0.01,VWS V14.00,2013-02-04 15:42:00,
2013-02-04 10:47:00,64.5,43.3,30.12,ENE,74,6.0,8.0,46,0.00,,---,0.01,VWS V14.00,2013-02-04 15:47:00,
2013-02-04 10:52:00,65.2,43.9,30.12,ENE,78,4.0,7.0,46,0.00,,---,0.01,VWS V14.00,2013-02-04 15:52:00,
2013-02-04 10:57:00,66.1,43.6,30.12,ENE,71,7.0,7.0,44,0.00,,---,0.01,VWS V14.00,2013-02-04 15:57:00,
2013-02-04 11:02:00,66.7,42.9,30.12,East,81,5.0,8.0,42,0.00,,---,0.01,VWS V14.00,2013-02-04 16:02:00,
2013-02-04 11:07:00,66.9,42.5,30.12,East,90,1.0,5.0,41,0.00,,---,0.01,VWS V14.00,2013-02-04 16:07:00,
2013-02-04 11:12:00,66.8,41.1,30.11,ENE,65,5.0,8.0,39,0.00,,---,0.01,VWS V14.00,2013-02-04 16:12:00,
2013-02-04 11:17:00,67.1,37.8,30.11,NE,46,5.0,7.0,34,0.00,,---,0.01,VWS V14.00,2013-02-04 16:17:00,
2013-02-04 11:22:00,66.7,38.2,30.11,NNE,27,2.0,6.0,35,0.00,,---,0.01,VWS V14.00,2013-02-04 16:22:00,
2013-02-04 11:27:00,66.7,36.7,30.11,NNE,24,0.0,8.0,33,0.00,,---,0.01,VWS V14.00,2013-02-04 16:27:00,
2013-02-04 11:32:00,66.7,39.6,30.11,East,98,1.0,6.0,37,0.00,,---,0.01,VWS V14.00,2013-02-04 16:32:00,
2013-02-04 11:37:00,67.4,38.8,30.10,SE,135,8.0,8.0,35,0.00,,---,0.01,VWS V14.00,2013-02-04 16:37:00,
2013-02-04 11:42:00,67.7,38.3,30.10,NNE,28,3.0,5.0,34,0.00,,---,0.01,VWS V14.00,2013-02-04 16:42:00,
2013-02-04 11:47:00,67.4,38.1,30.10,ENE,65,2.0,5.0,34,0.00,,---,0.01,VWS V14.00,2013-02-04 16:47:00,
2013-02-04 11:52:00,68.0,38.6,30.10,ENE,76,5.0,7.0,34,0.00,,---,0.01,VWS V14.00,2013-02-04 16:52:00,
2013-02-04 11:57:00,68.5,38.3,30.10,NE,53,5.0,5.0,33,0.00,,---,0.01,VWS V14.00,2013-02-04 16:57:00,
2013-02-04 12:02:00,69.3,33.9,30.10,SE,145,5.0,5.0,27,0.00,,---,0.01,VWS V14.00,2013-02-04 17:02:00,
2013-02-04 12:07:00,69.5,35.9,30.09,SSE,148,2.0,4.0,29,0.00,,---,0.01,VWS V14.00,2013-02-04 17:07:00,
2013-02-04 12:12:00,69.5,35.9,30.09,SSE,160,0.0,0.0,29,0.00,,---,0.01,VWS V14.00,2013-02-04 17:12:00,
2013-02-04 12:17:00,69.7,35.2,30.09,SE,146,0.0,3.0,28,0.00,,---,0.01,VWS V14.00,2013-02-04 17:17:00,
2013-02-04 12:22:00,70.4,34.9,30.09,SE,130,5.0,6.0,27,0.00,,---,0.01,VWS V14.00,2013-02-04 17:22:00,
2013-02-04 12:27:00,70.3,34.8,30.08,NNE,33,2.0,6.0,27,0.00,,---,0.01,VWS V14.00,2013-02-04 17:27:00,
2013-02-04 12:32:00,70.1,37.3,30.08,East,100,0.0,6.0,30,0.00,,---,0.01,VWS V14.00,2013-02-04 17:32:00,
2013-02-04 12:37:00,70.4,37.5,30.08,East,93,5.0,5.0,30,0.00,,---,0.01,VWS V14.00,2013-02-04 17:37:00,
2013-02-04 12:42:00,70.9,38.0,30.08,ESE,120,0.0,4.0,30,0.00,,---,0.01,VWS V14.00,2013-02-04 17:42:00,
2013-02-04 12:47:00,71.5,34.8,30.08,South,169,0.0,5.0,26,0.00,,---,0.01,VWS V14.00,2013-02-04 17:47:00,
2013-02-04 12:52:00,71.3,34.7,30.08,SSW,192,0.0,5.0,26,0.00,,---,0.01,VWS V14.00,2013-02-04 17:52:00,
2013-02-04 12:57:00,71.7,34.0,30.07,South,188,0.0,5.0,25,0.00,,---,0.01,VWS V14.00,2013-02-04 17:57:00,
2013-02-04 13:02:00,72.3,33.5,30.07,South,180,0.0,0.0,24,0.00,,---,0.01,VWS V14.00,2013-02-04 18:02:00,
2013-02-04 13:07:00,72.5,32.6,30.07,South,177,0.0,0.0,23,0.00,,---,0.01,VWS V14.00,2013-02-04 18:07:00,
2013-02-04 13:12:00,72.5,32.6,30.06,South,173,5.0,7.0,23,0.00,,---,0.01,VWS V14.00,2013-02-04 18:12:00,
2013-02-04 13:17:00,71.8,33.1,30.06,SSW,197,1.0,4.0,24,0.00,,---,0.01,VWS V14.00,2013-02-04 18:17:00,
2013-02-04 13:22:00,72.1,35.4,30.06,SSW,196,0.0,0.0,26,0.00,,---,0.01,VWS V14.00,2013-02-04 18:22:00,
2013-02-04 13:27:00,72.6,32.7,30.05,SSW,196,0.0,0.0,23,0.00,,---,0.01,VWS V14.00,2013-02-04 18:27:00,
2013-02-04 13:32:00,72.9,34.0,30.05,South,190,2.0,5.0,24,0.00,,---,0.01,VWS V14.00,2013-02-04 18:32:00,
2013-02-04 13:37:00,72.9,34.0,30.04,SW,218,0.0,6.0,24,0.00,,---,0.01,VWS V14.00,2013-02-04 18:37:00,
2013-02-04 13:42:00,72.8,32.9,30.03,SSW,205,0.0,4.0,23,0.00,,---,0.01,VWS V14.00,2013-02-04 18:42:00,
2013-02-04 13:47:00,72.9,33.0,30.03,SW,232,7.0,8.0,23,0.00,,---,0.01,VWS V14.00,2013-02-04 18:47:00,
2013-02-04 13:52:00,73.3,33.3,30.03,South,188,3.0,4.0,23,0.00,,---,0.01,VWS V14.00,2013-02-04 18:52:00,
2013-02-04 13:57:00,73.3,29.8,30.03,SSW,207,3.0,8.0,20,0.00,,---,0.01,VWS V14.00,2013-02-04 18:57:00,
2013-02-04 14:02:00,73.6,30.1,30.03,SSE,163,0.0,4.0,20,0.00,,---,0.01,VWS V14.00,2013-02-04 19:02:00,
2013-02-04 14:07:00,74.0,29.2,30.03,SSE,162,5.0,5.0,19,0.00,,---,0.01,VWS V14.00,2013-02-04 19:07:00,
2013-02-04 14:12:00,74.4,29.5,30.03,SSE,157,3.0,4.0,19,0.00,,---,0.01,VWS V14.00,2013-02-04 19:12:00,
2013-02-04 14:17:00,74.8,28.5,30.03,SE,146,0.0,7.0,18,0.00,,---,0.01,VWS V14.00,2013-02-04 19:17:00,
2013-02-04 14:22:00,74.9,27.2,30.02,SSE,151,0.0,4.0,17,0.00,,---,0.01,VWS V14.00,2013-02-04 19:22:00,
2013-02-04 14:27:00,74.3,28.1,30.02,South,182,3.0,3.0,18,0.00,,---,0.01,VWS V14.00,2013-02-04 19:27:00,
2013-02-04 14:32:00,74.4,29.5,30.02,SW,224,5.0,7.0,19,0.00,,---,0.01,VWS V14.00,2013-02-04 19:32:00,
2013-02-04 14:37:00,74.8,28.5,30.02,SE,138,0.0,6.0,18,0.00,,---,0.01,VWS V14.00,2013-02-04 19:37:00,
2013-02-04 14:42:00,74.8,28.5,30.02,SW,216,5.0,6.0,18,0.00,,---,0.01,VWS V14.00,2013-02-04 19:42:00,
2013-02-04 14:47:00,74.9,29.9,30.01,WSW,244,0.0,2.0,19,0.00,,---,0.01,VWS V14.00,2013-02-04 19:47:00,
2013-02-04 14:52:00,75.0,30.0,30.02,South,175,2.0,10.0,19,0.00,,---,0.01,VWS V14.00,2013-02-04 19:52:00,
2013-02-04 14:57:00,75.2,30.1,30.02,SSW,200,0.0,8.0,19,0.00,,---,0.01,VWS V14.00,2013-02-04 19:57:00,
2013-02-04 15:02:00,75.5,32.9,30.01,SSW,210,0.0,5.0,21,0.00,,---,0.01,VWS V14.00,2013-02-04 20:02:00,
2013-02-04 15:07:00,75.6,33.0,30.01,WNW,286,0.0,6.0,21,0.00,,---,0.01,VWS V14.00,2013-02-04 20:07:00,
2013-02-04 15:12:00,75.8,33.1,30.02,SW,217,5.0,8.0,21,0.00,,---,0.01,VWS V14.00,2013-02-04 20:12:00,
2013-02-04 15:17:00,75.7,34.2,30.02,SW,224,8.0,10.0,22,0.00,,---,0.01,VWS V14.00,2013-02-04 20:17:00,
2013-02-04 15:22:00,75.4,35.1,30.01,SSW,202,1.0,8.0,23,0.00,,---,0.01,VWS V14.00,2013-02-04 20:22:00,
2013-02-04 15:27:00,75.1,33.7,30.01,South,190,0.0,7.0,22,0.00,,---,0.01,VWS V14.00,2013-02-04 20:27:00,
2013-02-04 15:32:00,75.3,37.1,30.01,SW,219,0.0,2.0,25,0.00,,---,0.01,VWS V14.00,2013-02-04 20:32:00,
2013-02-04 15:37:00,75.8,36.5,30.01,SW,222,0.0,2.0,24,0.00,,---,0.01,VWS V14.00,2013-02-04 20:37:00,
2013-02-04 15:42:00,76.5,34.9,30.01,WSW,241,0.0,0.0,22,0.00,,---,0.01,VWS V14.00,2013-02-04 20:42:00,
2013-02-04 15:47:00,76.6,35.0,30.01,SW,232,5.0,7.0,22,0.00,,---,0.01,VWS V14.00,2013-02-04 20:47:00,
2013-02-04 15:52:00,76.2,35.7,30.01,SSW,211,0.0,5.0,23,0.00,,---,0.01,VWS V14.00,2013-02-04 20:52:00,
2013-02-04 15:57:00,76.3,35.8,30.01,SW,232,1.0,7.0,23,0.00,,---,0.01,VWS V14.00,2013-02-04 20:57:00,
2013-02-04 16:02:00,76.1,36.7,30.01,SW,230,0.0,3.0,24,0.00,,---,0.01,VWS V14.00,2013-02-04 21:02:00,
2013-02-04 16:07:00,75.7,37.4,30.01,SW,217,5.0,5.0,25,0.00,,---,0.01,VWS V14.00,2013-02-04 21:07:00,
2013-02-04 16:12:00,75.4,38.2,30.01,SW,225,0.0,1.0,26,0.00,,---,0.01,VWS V14.00,2013-02-04 21:12:00,
2013-02-04 16:17:00,75.2,39.0,30.01,SW,227,0.0,6.0,27,0.00,,---,0.01,VWS V14.00,2013-02-04 21:17:00,
2013-02-04 16:22:00,75.3,40.9,30.01,SW,234,1.0,6.0,29,0.00,,---,0.01,VWS V14.00,2013-02-04 21:22:00,
2013-02-04 16:27:00,75.6,41.1,30.01,SW,232,0.0,1.0,29,0.00,,---,0.01,VWS V14.00,2013-02-04 21:27:00,
2013-02-04 16:32:00,75.5,41.0,30.01,SW,229,5.0,10.0,29,0.00,,---,0.01,VWS V14.00,2013-02-04 21:32:00,
2013-02-04 16:37:00,75.0,41.5,30.01,SW,225,0.0,9.0,30,0.00,,---,0.01,VWS V14.00,2013-02-04 21:37:00,
2013-02-04 16:42:00,74.8,43.0,30.01,SW,222,7.0,7.0,32,0.00,,---,0.01,VWS V14.00,2013-02-04 21:42:00,
2013-02-04 16:47:00,74.7,42.9,30.01,SSW,204,0.0,4.0,32,0.00,,---,0.01,VWS V14.00,2013-02-04 21:47:00,
2013-02-04 16:52:00,74.5,42.7,30.01,SW,234,4.0,5.0,32,0.00,,---,0.01,VWS V14.00,2013-02-04 21:52:00,
2013-02-04 16:57:00,74.4,43.5,30.01,SW,229,2.0,6.0,33,0.00,,---,0.01,VWS V14.00,2013-02-04 21:57:00,
2013-02-04 17:02:00,74.2,44.1,30.01,SW,226,7.0,7.0,34,0.00,,---,0.01,VWS V14.00,2013-02-04 22:02:00,
2013-02-04 17:07:00,74.0,44.6,30.01,SW,231,0.0,1.0,35,0.00,,---,0.01,VWS V14.00,2013-02-04 22:07:00,
2013-02-04 17:12:00,73.5,44.2,30.01,SW,227,2.0,7.0,35,0.00,,---,0.01,VWS V14.00,2013-02-04 22:12:00,
2013-02-04 17:18:00,72.7,44.2,30.01,SW,217,5.0,7.0,36,0.00,,---,0.01,VWS V14.00,2013-02-04 22:18:00,
2013-02-04 17:23:00,72.0,44.3,30.01,SW,225,4.0,6.0,37,0.00,,---,0.01,VWS V14.00,2013-02-04 22:23:00,
2013-02-04 17:28:00,71.5,44.6,30.01,WSW,238,4.0,4.0,38,0.00,,---,0.01,VWS V14.00,2013-02-04 22:28:00,
2013-02-04 17:33:00,71.0,43.4,30.02,SW,221,0.0,8.0,37,0.00,,---,0.01,VWS V14.00,2013-02-04 22:33:00,
2013-02-04 17:38:00,70.6,43.1,30.01,SW,229,0.0,3.0,37,0.00,,---,0.01,VWS V14.00,2013-02-04 22:38:00,
2013-02-04 17:43:00,70.1,42.7,30.02,SW,225,0.0,2.0,37,0.00,,---,0.01,VWS V14.00,2013-02-04 22:43:00,
2013-02-04 17:48:00,69.7,43.0,30.02,SW,229,0.0,2.0,38,0.00,,---,0.01,VWS V14.00,2013-02-04 22:48:00,
2013-02-04 17:53:00,69.2,43.2,30.02,SW,230,4.0,5.0,39,0.00,,---,0.01,VWS V14.00,2013-02-04 22:53:00,
2013-02-04 17:58:00,68.7,43.4,30.02,SW,227,0.0,2.0,40,0.00,,---,0.01,VWS V14.00,2013-02-04 22:58:00,
2013-02-04 18:03:00,68.2,43.6,30.02,SW,227,0.0,0.0,41,0.00,,---,0.01,VWS V14.00,2013-02-04 23:03:00,
2013-02-04 18:08:00,67.7,43.8,30.03,SW,227,0.0,0.0,42,0.00,,---,0.01,VWS V14.00,2013-02-04 23:08:00,
2013-02-04 18:13:00,67.2,43.4,30.03,SW,227,0.0,0.0,42,0.00,,---,0.01,VWS V14.00,2013-02-04 23:13:00,
2013-02-04 18:18:00,66.7,43.5,30.03,SW,227,0.0,0.0,43,0.00,,---,0.01,VWS V14.00,2013-02-04 23:18:00,
2013-02-04 18:23:00,66.2,43.7,30.03,SW,227,0.0,0.0,44,0.00,,---,0.01,VWS V14.00,2013-02-04 23:23:00,
2013-02-04 18:28:00,65.7,43.2,30.03,SW,227,0.0,0.0,44,0.00,,---,0.01,VWS V14.00,2013-02-04 23:28:00,
2013-02-04 18:32:00,65.2,43.3,30.03,SW,227,0.0,0.0,45,0.00,,---,0.01,VWS V14.00,2013-02-04 23:32:00,
2013-02-04 18:38:00,64.6,42.8,30.03,SW,227,0.0,0.0,45,0.00,,---,0.01,VWS V14.00,2013-02-04 23:38:00,
2013-02-04 18:43:00,64.1,42.9,30.03,SW,227,0.0,0.0,46,0.00,,---,0.01,VWS V14.00,2013-02-04 23:43:00,
2013-02-04 18:48:00,63.5,42.4,30.03,SW,228,0.0,0.0,46,0.00,,---,0.01,VWS V14.00,2013-02-04 23:48:00,
2013-02-04 18:52:00,63.0,41.3,30.03,SW,229,0.0,0.0,45,0.00,,---,0.01,VWS V14.00,2013-02-04 23:52:00,
2013-02-04 18:58:00,62.7,40.5,30.03,SW,229,0.0,0.0,44,0.00,,---,0.01,VWS V14.00,2013-02-04 23:58:00,
2013-02-04 19:03:00,62.6,39.8,30.03,SW,229,0.0,0.0,43,0.00,,---,0.01,VWS V14.00,2013-02-05 00:03:00,
2013-02-04 19:08:00,62.4,39.6,30.03,SW,229,0.0,0.0,43,0.00,,---,0.01,VWS V14.00,2013-02-05 00:08:00,
2013-02-04 19:13:00,62.1,39.4,30.03,SW,229,0.0,0.0,43,0.00,,---,0.01,VWS V14.00,2013-02-05 00:13:00,
2013-02-04 19:18:00,61.8,39.7,30.04,SW,229,0.0,0.0,44,0.00,,---,0.01,VWS V14.00,2013-02-05 00:18:00,
2013-02-04 19:23:00,61.4,39.3,30.04,SW,229,0.0,0.0,44,0.00,,---,0.01,VWS V14.00,2013-02-05 00:23:00,
2013-02-04 19:28:00,60.8,39.3,30.04,SW,229,0.0,0.0,45,0.00,,---,0.01,VWS V14.00,2013-02-05 00:28:00,
2013-02-04 19:33:00,60.5,39.6,30.04,SW,229,0.0,0.0,46,0.00,,---,0.01,VWS V14.00,2013-02-05 00:33:00,
2013-02-04 19:38:00,60.3,39.5,30.04,SW,229,0.0,0.0,46,0.00,,---,0.01,VWS V14.00,2013-02-05 00:38:00,
2013-02-04 19:43:00,60.2,39.9,30.04,SW,229,0.0,0.0,47,0.00,,---,0.01,VWS V14.00,2013-02-05 00:43:00,
2013-02-04 19:48:00,60.0,39.7,30.04,SW,229,0.0,0.0,47,0.00,,---,0.01,VWS V14.00,2013-02-05 00:48:00,
2013-02-04 19:53:00,60.0,40.3,30.05,SW,229,0.0,0.0,48,0.00,,---,0.01,VWS V14.00,2013-02-05 00:53:00,
2013-02-04 19:58:00,59.8,40.6,30.05,SW,229,0.0,0.0,49,0.00,,---,0.01,VWS V14.00,2013-02-05 00:58:00,
2013-02-04 20:03:00,59.6,40.4,30.04,SW,229,0.0,0.0,49,0.00,,---,0.01,VWS V14.00,2013-02-05 01:03:00,
2013-02-04 20:08:00,59.3,41.2,30.04,SW,229,0.0,0.0,51,0.00,,---,0.01,VWS V14.00,2013-02-05 01:08:00,
2013-02-04 20:13:00,59.1,41.0,30.05,SW,229,0.0,0.0,51,0.00,,---,0.01,VWS V14.00,2013-02-05 01:13:00,
2013-02-04 20:18:00,58.8,41.2,30.05,SW,229,0.0,0.0,52,0.00,,---,0.01,VWS V14.00,2013-02-05 01:18:00,
2013-02-04 20:23:00,58.4,41.8,30.05,SW,229,1.0,1.0,54,0.00,,---,0.01,VWS V14.00,2013-02-05 01:23:00,
2013-02-04 20:28:00,58.0,41.9,30.05,SW,229,2.0,2.0,55,0.00,,---,0.01,VWS V14.00,2013-02-05 01:28:00,
2013-02-04 20:33:00,57.8,42.2,30.05,SW,229,0.0,4.0,56,0.00,,---,0.01,VWS V14.00,2013-02-05 01:33:00,
2013-02-04 20:38:00,57.8,42.7,30.05,SW,229,0.0,0.0,57,0.00,,---,0.01,VWS V14.00,2013-02-05 01:38:00,
2013-02-04 20:43:00,57.7,43.0,30.05,SW,229,0.0,0.0,58,0.00,,---,0.01,VWS V14.00,2013-02-05 01:43:00,
2013-02-04 20:48:00,57.5,43.3,30.05,SW,229,0.0,0.0,59,0.00,,---,0.01,VWS V14.00,2013-02-05 01:48:00,
2013-02-04 20:53:00,57.3,43.5,30.05,SW,229,0.0,0.0,60,0.00,,---,0.01,VWS V14.00,2013-02-05 01:53:00,
2013-02-04 20:58:00,57.1,43.8,30.05,SW,229,0.0,0.0,61,0.00,,---,0.01,VWS V14.00,2013-02-05 01:58:00,
2013-02-04 21:03:00,56.8,43.5,30.05,SW,229,0.0,0.0,61,0.00,,---,0.01,VWS V14.00,2013-02-05 02:03:00,
2013-02-04 21:08:00,56.6,43.8,30.06,SW,229,0.0,0.0,62,0.00,,---,0.01,VWS V14.00,2013-02-05 02:08:00,
2013-02-04 21:13:00,56.4,43.6,30.06,SW,229,0.0,0.0,62,0.00,,---,0.01,VWS V14.00,2013-02-05 02:13:00,
2013-02-04 21:18:00,56.2,43.8,30.06,SW,229,0.0,0.0,63,0.00,,---,0.01,VWS V14.00,2013-02-05 02:18:00,
2013-02-04 21:23:00,56.0,44.0,30.06,SW,229,0.0,0.0,64,0.00,,---,0.01,VWS V14.00,2013-02-05 02:23:00,
2013-02-04 21:28:00,55.8,43.8,30.06,SW,229,0.0,0.0,64,0.00,,---,0.01,VWS V14.00,2013-02-05 02:28:00,
2013-02-04 21:33:00,55.5,43.9,30.05,SW,229,0.0,0.0,65,0.00,,---,0.01,VWS V14.00,2013-02-05 02:33:00,
2013-02-04 21:38:00,55.2,44.0,30.05,SW,229,0.0,0.0,66,0.00,,---,0.01,VWS V14.00,2013-02-05 02:38:00,
2013-02-04 21:43:00,54.9,44.2,30.05,SW,229,0.0,0.0,67,0.00,,---,0.01,VWS V14.00,2013-02-05 02:43:00,
2013-02-04 21:48:00,54.5,43.8,30.05,SW,229,0.0,0.0,67,0.00,,---,0.01,VWS V14.00,2013-02-05 02:48:00,
2013-02-04 21:53:00,54.2,44.3,30.05,SW,229,0.0,0.0,69,0.00,,---,0.01,VWS V14.00,2013-02-05 02:53:00,
2013-02-04 21:58:00,54.0,44.1,30.05,SW,229,0.0,0.0,69,0.00,,---,0.01,VWS V14.00,2013-02-05 02:58:00,
2013-02-04 22:03:00,53.7,43.8,30.05,SW,229,0.0,0.0,69,0.00,,---,0.01,VWS V14.00,2013-02-05 03:03:00,
2013-02-04 22:08:00,53.4,44.2,30.05,SW,229,0.0,0.0,71,0.00,,---,0.01,VWS V14.00,2013-02-05 03:08:00,
2013-02-04 22:13:00,53.2,44.4,30.06,SW,229,0.0,0.0,72,0.00,,---,0.01,VWS V14.00,2013-02-05 03:13:00,
2013-02-04 22:18:00,52.9,44.1,30.06,SW,229,0.0,0.0,72,0.00,,---,0.01,VWS V14.00,2013-02-05 03:18:00,
2013-02-04 22:23:00,52.6,44.2,30.06,SW,229,0.0,0.0,73,0.00,,---,0.01,VWS V14.00,2013-02-05 03:23:00,
2013-02-04 22:28:00,52.5,44.8,30.06,SW,229,0.0,0.0,75,0.00,,---,0.01,VWS V14.00,2013-02-05 03:28:00,
2013-02-04 22:33:00,52.3,45.0,30.06,SW,229,0.0,0.0,76,0.00,,---,0.01,VWS V14.00,2013-02-05 03:33:00,
2013-02-04 22:38:00,52.2,45.2,30.05,SW,229,0.0,0.0,77,0.00,,---,0.01,VWS V14.00,2013-02-05 03:38:00,
2013-02-04 22:43:00,52.1,45.1,30.06,SW,229,0.0,0.0,77,0.00,,---,0.01,VWS V14.00,2013-02-05 03:43:00,
2013-02-04 22:48:00,52.1,45.1,30.06,SW,229,0.0,0.0,77,0.00,,---,0.01,VWS V14.00,2013-02-05 03:48:00,
2013-02-04 22:53:00,52.3,45.3,30.06,SW,229,0.0,0.0,77,0.00,,---,0.01,VWS V14.00,2013-02-05 03:53:00,
2013-02-04 22:58:00,52.3,45.0,30.06,SW,229,0.0,0.0,76,0.00,,---,0.01,VWS V14.00,2013-02-05 03:58:00,
2013-02-04 23:03:00,52.3,45.3,30.06,SW,229,0.0,0.0,77,0.00,,---,0.01,VWS V14.00,2013-02-05 04:03:00,
2013-02-04 23:08:00,52.1,45.1,30.06,SW,229,0.0,0.0,77,0.00,,---,0.01,VWS V14.00,2013-02-05 04:08:00,
2013-02-04 23:13:00,51.9,44.9,30.06,SW,229,0.0,0.0,77,0.00,,---,0.01,VWS V14.00,2013-02-05 04:13:00,
2013-02-04 23:18:00,51.8,45.2,30.06,SW,229,0.0,0.0,78,0.00,,---,0.01,VWS V14.00,2013-02-05 04:18:00,
2013-02-04 23:23:00,51.6,45.0,30.07,SW,229,0.0,0.0,78,0.00,,---,0.01,VWS V14.00,2013-02-05 04:23:00,
2013-02-04 23:28:00,51.4,45.1,30.07,SW,229,0.0,0.0,79,0.00,,---,0.01,VWS V14.00,2013-02-05 04:28:00,
2013-02-04 23:30:00,50.8,45.2,30.06,SW,229,0.0,0.0,81,0.00,,---,0.00,VWS V14.00,2013-02-05 04:30:00,
2013-02-04 23:33:00,51.3,45.3,30.07,SW,229,0.0,0.0,80,0.00,,---,0.01,VWS V14.00,2013-02-05 04:33:00,
2013-02-04 23:35:00,50.7,45.1,30.06,SW,229,0.0,0.0,81,0.00,,---,0.00,VWS V14.00,2013-02-05 04:35:00,
2013-02-04 23:38:00,51.2,45.6,30.07,SW,229,0.0,0.0,81,0.00,,---,0.01,VWS V14.00,2013-02-05 04:38:00,
2013-02-04 23:40:00,50.5,45.5,30.06,SW,229,0.0,0.0,83,0.00,,---,0.00,VWS V14.00,2013-02-05 04:40:00,
2013-02-04 23:43:00,51.1,45.8,30.07,SW,229,0.0,0.0,82,0.00,,---,0.01,VWS V14.00,2013-02-05 04:43:00,
2013-02-04 23:45:00,50.4,45.4,30.06,SW,229,0.0,0.0,83,0.00,,---,0.00,VWS V14.00,2013-02-05 04:45:00,
2013-02-04 23:48:00,51.0,45.7,30.07,SW,229,0.0,0.0,82,0.00,,---,0.01,VWS V14.00,2013-02-05 04:48:00,
2013-02-04 23:50:00,50.2,44.9,30.06,SW,229,0.0,0.0,82,0.00,,---,0.00,VWS V14.00,2013-02-05 04:50:00,
2013-02-04 23:53:00,51.0,45.7,30.07,SW,229,0.0,0.0,82,0.00,,---,0.01,VWS V14.00,2013-02-05 04:53:00,
2013-02-04 23:55:00,50.0,44.7,30.06,SW,229,0.0,0.0,82,0.00,,---,0.00,VWS V14.00,2013-02-05 04:55:00,
2013-02-04 23:58:00,51.0,45.4,30.07,SW,229,0.0,0.0,81,0.00,,---,0.01,VWS V14.00,2013-02-05 04:58:00,